This is the latest recevied weather packets stored in our database for station/object XE1GMR. If no packets are shown the sender has not sent any weather packets the latest 1 day(s).
| Time | Temp. | Humidity | Pressure | Rain* | Wind** | Luminosity | Snow |
|---|---|---|---|---|---|---|---|
| 1777986664 | 17.22° C | 73% | 1123 hPa | 0 mm | 0.45 m/s, 275° | 100 W/m² | - |
| 1777986361 | 16.67° C | 74% | 1123.1 hPa | 0 mm | 0.45 m/s, 294° | 86 W/m² | - |
| 1777986059 | 16.67° C | 75% | 1122.7 hPa | 0 mm | 0 m/s | 75 W/m² | - |
| 1777985755 | 16.11° C | 76% | 1122.8 hPa | 0 mm | 0 m/s | 62 W/m² | - |
| 1777985453 | 16.11° C | 77% | 1123.1 hPa | 0 mm | 0.45 m/s, 287° | 55 W/m² | - |
| 1777985149 | 16.11° C | 78% | 1122.8 hPa | 0 mm | 0.45 m/s, 297° | 48 W/m² | - |
| 1777984845 | 15.56° C | 78% | 1122.9 hPa | 0 mm | 0 m/s | 41 W/m² | - |
| 1777984542 | 15.56° C | 79% | 1122.6 hPa | 0 mm | 0 m/s | 34 W/m² | - |
| 1777984238 | 15.56° C | 79% | 1122.5 hPa | 0 mm | 0 m/s | 26 W/m² | - |
| 1777983935 | 15.56° C | 80% | 1122.5 hPa | 0 mm | 0.45 m/s, 286° | 19 W/m² | - |
| 1777983632 | 15° C | 80% | 1122.4 hPa | 0 mm | 0.45 m/s, 272° | 15 W/m² | - |
| 1777983329 | 15° C | 80% | 1122.6 hPa | 0 mm | 0.45 m/s, 270° | 10 W/m² | - |
| 1777983025 | 15° C | 80% | 1122.2 hPa | 0 mm | 0.45 m/s, 264° | 6 W/m² | - |
| 1777982722 | 15° C | 80% | 1122.2 hPa | 0 mm | 0 m/s | 2 W/m² | - |
| 1777982417 | 15° C | 81% | 1122.4 hPa | 0 mm | 0 m/s | 0 W/m² | - |
| 1777982112 | 15° C | 80% | 1122.5 hPa | 0 mm | 0 m/s | 0 W/m² | - |
| 1777981810 | 15° C | 80% | 1122.4 hPa | 0 mm | 0 m/s | 0 W/m² | - |
| 1777981507 | 15° C | 80% | 1122.5 hPa | 0 mm | 0 m/s | 0 W/m² | - |
| 1777981203 | 15.56° C | 80% | 1122.1 hPa | 0 mm | 0 m/s | 0 W/m² | - |
| 1777980900 | 15.56° C | 79% | 1122.2 hPa | 0 mm | 0.45 m/s, 266° | 0 W/m² | - |
| 1777980595 | 15.56° C | 79% | 1122.1 hPa | 0 mm | 0 m/s | 0 W/m² | - |
| 1777980293 | 15.56° C | 79% | 1122.1 hPa | 0 mm | 0.45 m/s, 278° | 0 W/m² | - |
| 1777979990 | 15.56° C | 80% | 1122.1 hPa | 0 mm | 0.45 m/s, 263° | 0 W/m² | - |
| 1777979684 | 15.56° C | 81% | 1121.8 hPa | 0 mm | 0 m/s | 0 W/m² | - |
| 1777979381 | 15.56° C | 81% | 1122 hPa | 0 mm | 0 m/s | 0 W/m² | - |
* Rain latest hour (hover to see other rain measurements)
** Current wind speed in m/s (hover to see current wind gust speed)